Simultaneous Nadir Overpasses (SNOs) Predictions

Prediction of SNOs near equator between NOAA-19 and NPP Satellite Orbit:

Table of predicted SNOs near equator for the next 14.0 days since TLE Epoch: 12/8/2012
Index Date (NOAA-19) Time (NOAA-19) NOAA-19 Lat,Lon Date (NPP) Time (NPP) NPP Lat,Lon Distance(km) Time Diff (sec)
1 12/11/2012 01:27:19 -29.96, -3.34 12/11/2012 01:20:22 -29.74, -4.33 98.98 417
2 12/11/2012 02:18:22 29.95, 163.90 12/11/2012 02:11:11 29.77, 162.96 93.24 431
3 12/11/2012 03:09:24 -29.97, -28.86 12/11/2012 03:01:53 -29.81, -29.72 85.29 451
4 12/11/2012 04:00:27 29.96, 138.38 12/11/2012 03:52:41 29.78, 137.58 79.58 466
5 12/11/2012 04:51:29 -29.98, -54.38 12/11/2012 04:43:23 -29.81, -55.10 71.64 486
6 12/11/2012 05:42:32 29.97, 112.86 12/11/2012 05:34:12 29.84, 112.19 65.90 500
7 12/11/2012 06:33:3
